Weather in Novopodkletnoye

Russia / Voronezh Oblast     51°46′30″N   39°07′30″E
temp.,
°C
wind,
m/s
gust,
m/s
humid.,
%
clouds,
%
prec.,
mm/h
press.,
hPa
HPBL,
m
28 september, tue
tue2800:00+10n3882100 0.2 1020515
03:00+9n378893 0.3 1020422
06:00+9ne3882100 0.1 1021651
09:00+9ne4773100 0.1 1023811
12:00+8ne4671100 0.0 1025961
15:00+8ne4677100 0.1 1026999
18:00+7ne4874100 0.0 1028889
21:00+7ne4771100 0.0 1030742
29 september, wed
wed2900:00+7ne3771100 0.0 1031629
03:00+5ne37755 0.0 1032305
06:00+4nne36765 0.0 1032229
09:00+7ne37609 0.0 1033483
12:00+10ne35427 0.0 10331254
15:00+12nne45375 0.0 10321445
18:00+10nne35455 0.0 1032762
21:00+7nne26545 0.0 1033208
30 september, thu
thu3000:00+6ne236189 0.0 1033135
03:00+6nne2362100 0.0 1034111
06:00+5nne23675 0.0 1034121
09:00+8ne24565 0.0 1035352
12:00+12ne23425 0.0 10341277
15:00+13ne23386 0.0 10341626
18:00+11ne24485 0.0 1034285
21:00+9ne24575 0.0 1035124
1 october, fri
fri100:00+8ne12625 0.0 103587
03:00+7ne11655 0.0 103641
06:00+6nne11685 0.0 103639
09:00+9ne11575 0.0 1036260
12:00+13e11425 0.0 1036964
15:00+15nnw11395 0.0 10351395
18:00+13nnw12485 0.0 103440
21:00+11nne12585 0.0 103552
2 october, sat
sat200:00+10ene11655 0.0 103518
03:00+9ene11695 0.0 103512
06:00+8ene11735 0.0 103512
09:00+11e11615 0.0 1035231
12:00+15se12475 0.0 1034936
15:00+16sse124545 0.0 10331501
18:00+14se3452100 0.0 1033544
21:00+13se2458100 0.0 1033372